Zim Luanda — 9HA2029 — position and weather

sailwx.info

Track history (hours):
 
Tides and Currents Weather Stations Pressure Air Temp Water Temp Dewpoint Dewpoint Depression Visibility Wind Speed Wind Dir Waves Ship Positions

Zim Luanda

Last reported at 2014-Oct-26 07:33 UTC. Time now 2014-Oct-26 07:52 UTC.
Position N 41°21' E 002°10'.

Length 260 m; draft 12.1 m.

Type: Ship (hazmat cat A). MMSI: 249830000.

Date/timePositionNaut miles runAvg speedWind from/ knotsBaromVisibWave heightAir tempDewpointWater temp
2014-Oct-26 07:33N 41°21' E 002°10'0 0.0
2014-Oct-26 06:34N 41°21' E 002°10'0 0.5
2014-Oct-26 05:33N 41°21' E 002°10'6 6.3
2014-Oct-26 04:34N 41°15' E 002°09'1212.3
2014-Oct-26 03:33N 41°10' E 001°54'1312.7
2014-Oct-26 02:33N 41°06' E 001°38'1313.0
2014-Oct-26 01:32N 41°03' E 001°21'7 2.1
2014-Oct-25 22:21N 41°06' E 001°13'0 0.0
2014-Oct-25 21:17N 41°06' E 001°13'0 0.0
2014-Oct-25 20:29N 41°06' E 001°13'0 0.0
2014-Oct-25 19:20N 41°06' E 001°13'0 0.0
2014-Oct-25 14:09N 41°06' E 001°13'0 0.0
2014-Oct-25 12:22N 41°06' E 001°13'0 0.1
2014-Oct-25 11:18N 41°05' E 001°13'2 2.9
2014-Oct-25 10:33N 41°03' E 001°12'2214.9
2014-Oct-25 09:04N 41°05' E 001°41'913.0
2014-Oct-25 08:24N 41°06' E 001°52'2218.0
2014-Oct-25 07:10N 41°16' E 002°19'1817.7
2014-Oct-25 06:09N 41°24' E 002°41'3217.9
2014-Oct-25 04:22N 41°39' E 003°18'11817.4
2014-Oct-24 21:33N 42°32' E 005°41'2017.4
2014-Oct-24 20:24N 42°43' E 006°04'1918.0
2014-Oct-24 19:23N 42°50' E 006°27'1617.5
2014-Oct-24 18:28N 42°60' E 006°44'1617.5
2014-Oct-24 17:32N 43°10' E 007°02'1716.9
2014-Oct-24 16:33N 43°21' E 007°19'1616.3
2014-Oct-24 15:33N 43°31' E 007°37'1716.9
2014-Oct-24 14:33N 43°42' E 007°55'1717.4
2014-Oct-24 13:33N 43°53' E 008°13'1717.3
2014-Oct-24 12:33N 44°04' E 008°32'1717.3
2014-Oct-24 11:34N 44°14' E 008°50'10 9.9
2014-Oct-24 10:33N 44°24' E 008°55'1 0.8
2014-Oct-24 09:32N 44°24' E 008°54'0 0.0
2014-Oct-24 08:32N 44°24' E 008°54'0 0.0
2014-Oct-24 07:32N 44°24' E 008°54'0 0.0
2014-Oct-24 06:32N 44°24' E 008°54'0 0.0
2014-Oct-24 05:32N 44°24' E 008°54'0 0.0
2014-Oct-24 04:32N 44°24' E 008°54'0 0.0
2014-Oct-24 03:32N 44°24' E 008°54'0 0.0
2014-Oct-24 02:32N 44°24' E 008°54'0 0.0
2014-Oct-24 01:32N 44°24' E 008°54'0 0.0
2014-Oct-24 00:32N 44°24' E 008°54'0 0.0
2014-Oct-23 23:32N 44°24' E 008°54'0 0.0
2014-Oct-23 22:32N 44°24' E 008°54'0 0.0
2014-Oct-23 21:32N 44°24' E 008°54'0 0.0
2014-Oct-23 20:32N 44°24' E 008°54'0 0.0
2014-Oct-23 19:32N 44°24' E 008°54'0 0.0
2014-Oct-23 18:32N 44°24' E 008°54'0 0.0
2014-Oct-23 17:32N 44°24' E 008°54'0 0.0
2014-Oct-23 16:32N 44°24' E 008°54'0 0.0
2014-Oct-23 15:32N 44°24' E 008°54'1 1.2
2014-Oct-23 14:33N 44°24' E 008°55'9 9.4
2014-Oct-23 13:33N 44°16' E 009°04'1616.5
2014-Oct-23 12:34N 44°05' E 009°19'1716.9
2014-Oct-23 11:34N 43°52' E 009°35'1717.0
2014-Oct-23 10:33N 43°40' E 009°51'1615.9
2014-Oct-23 09:34N 43°31' E 010°09'7 7.3
2014-Oct-23 08:33N 43°35' E 010°18'0 0.0
2014-Oct-23 07:33N 43°35' E 010°18'0 0.0
2014-Oct-23 06:30N 43°35' E 010°18'0 0.0
2014-Oct-23 05:33N 43°35' E 010°18'0 0.0
2014-Oct-23 04:33N 43°35' E 010°18'0 0.0
2014-Oct-23 03:33N 43°35' E 010°18'0 0.0
2014-Oct-23 02:33N 43°35' E 010°18'0 0.0
2014-Oct-23 01:33N 43°35' E 010°18'0 0.0
2014-Oct-23 00:33N 43°35' E 010°18'0 0.0
2014-Oct-22 23:33N 43°35' E 010°18'0 0.0
2014-Oct-22 22:33N 43°35' E 010°18'0 0.0
2014-Oct-22 21:33N 43°35' E 010°18'0 0.0
2014-Oct-22 20:33N 43°35' E 010°18'0 0.0
2014-Oct-22 19:30N 43°35' E 010°18'0 0.0
2014-Oct-22 18:33N 43°35' E 010°18'0 0.0
2014-Oct-22 17:33N 43°35' E 010°18'0 0.0
2014-Oct-22 16:33N 43°35' E 010°18'0 0.0
2014-Oct-22 15:33N 43°35' E 010°18'0 0.0
2014-Oct-22 14:33N 43°35' E 010°18'0 0.0
2014-Oct-22 13:33N 43°35' E 010°18'0 0.0
2014-Oct-22 12:33N 43°35' E 010°18'0 0.0
2014-Oct-22 11:33N 43°35' E 010°18'0 0.0
2014-Oct-22 10:33N 43°35' E 010°18'0 0.0
2014-Oct-22 09:33N 43°35' E 010°18'0 0.0
2014-Oct-22 08:30N 43°35' E 010°18'0 0.0
2014-Oct-22 07:33N 43°35' E 010°18'0 0.0
2014-Oct-22 06:33N 43°35' E 010°18'2 1.9
2014-Oct-22 05:33N 43°33' E 010°17'5 5.2
2014-Oct-22 04:34N 43°29' E 010°12'2 2.4
2014-Oct-22 03:33N 43°27' E 010°13'1211.5
2014-Oct-22 02:33N 43°15' E 010°10'1211.6
2014-Oct-22 01:33N 43°04' E 010°07'1211.8
2014-Oct-22 00:33N 42°53' E 010°04'1410.6
2014-Oct-21 23:17N 42°39' E 010°09'7212.1
2014-Oct-21 17:22N 41°48' E 011°16'27711.1
2014-Oct-20 16:25N 38°30' E 015°29'1011.3
2014-Oct-20 15:31N 38°23' E 015°38'8 8.2
2014-Oct-20 14:30N 38°14' E 015°38'1211.7
2014-Oct-20 13:30N 38°03' E 015°36'37910.7
2014-Oct-19 02:09N 36°59' E 023°26'3112.1
2014-Oct-18 23:33N 37°29' E 023°39'1212.3
2014-Oct-18 22:33N 37°41' E 023°41'1211.8
2014-Oct-18 21:33N 37°52' E 023°36'5 5.1
2014-Oct-18 20:31N 37°57' E 023°35'0 0.0
2014-Oct-18 19:31N 37°57' E 023°35'0 0.0
2014-Oct-18 18:31N 37°57' E 023°35'0 0.0
2014-Oct-18 17:31N 37°57' E 023°35'0 0.0
2014-Oct-18 16:31N 37°57' E 023°35'0 0.0
2014-Oct-18 15:31N 37°57' E 023°35'0 0.0
2014-Oct-18 14:31N 37°57' E 023°35'0 0.0
2014-Oct-18 13:31N 37°57' E 023°35'0 0.0
2014-Oct-18 12:31N 37°57' E 023°35'0 0.0
2014-Oct-18 11:31N 37°57' E 023°35'0 0.0
2014-Oct-18 10:31N 37°57' E 023°35'0 0.0
2014-Oct-18 09:31N 37°57' E 023°35'0 0.0
2014-Oct-18 08:31N 37°57' E 023°35'0 0.0
2014-Oct-18 07:31N 37°57' E 023°35'0 0.0
2014-Oct-18 06:31N 37°57' E 023°35'0 0.0
2014-Oct-18 05:28N 37°57' E 023°35'0 0.3
2014-Oct-18 04:33N 37°57' E 023°35'3 3.0
2014-Oct-18 03:33N 37°54' E 023°35'3 2.8
2014-Oct-18 02:33N 37°52' E 023°38'6 5.8
2014-Oct-18 01:33N 37°47' E 023°41'10 9.6
2014-Oct-18 00:33N 37°39' E 023°48'1111.4
2014-Oct-17 23:33N 37°30' E 023°58'1211.1
2014-Oct-17 22:30N 37°21' E 024°07'3411.5
2014-Oct-17 19:33N 36°55' E 024°34'1312.0
2014-Oct-17 18:27N 36°45' E 024°44'1211.2
2014-Oct-17 17:21N 36°35' E 024°53'911.4
2014-Oct-17 16:33N 36°29' E 025°02'1111.1
2014-Oct-17 15:33N 36°22' E 025°13'1010.4
2014-Oct-17 14:33N 36°15' E 025°22'1110.6
2014-Oct-17 13:33N 36°09' E 025°33'1110.9
2014-Oct-17 12:33N 36°02' E 025°43'1010.4
2014-Oct-17 11:33N 35°56' E 025°53'1110.9
2014-Oct-17 10:33N 35°49' E 026°04'1010.5
2014-Oct-17 09:33N 35°42' E 026°14'1110.7
2014-Oct-17 08:33N 35°35' E 026°24'1110.9
2014-Oct-17 07:33N 35°29' E 026°34'1211.7
2014-Oct-17 06:33N 35°21' E 026°45'1212.1
2014-Oct-17 05:33N 35°16' E 026°59'1212.2
2014-Oct-17 04:33N 35°12' E 027°13'1211.7
2014-Oct-17 03:33N 35°08' E 027°26'1211.7
2014-Oct-17 02:33N 35°04' E 027°40'1411.6
2014-Oct-17 01:21N 34°59' E 027°56'1111.5
2014-Oct-17 00:25N 34°55' E 028°08'11710.5
2014-Oct-16 13:20N 34°14' E 030°21'  
Track history (hours):
 
Tides and Currents Weather Stations Pressure Air Temp Water Temp Dewpoint Dewpoint Depression Visibility Wind Speed Wind Dir Waves Ship Positions

Zim Luanda

Last reported at 2014-Oct-26 07:33 UTC. Time now 2014-Oct-26 07:52 UTC.
Position N 41°21' E 002°10'.

Length 260 m; draft 12.1 m.

Type: Ship (hazmat cat A). MMSI: 249830000.

Date/timePositionNaut miles runAvg speedWind from/ knotsBaromVisibWave heightAir tempDewpointWater temp
2014-Oct-26 07:33N 41°21' E 002°10'0 0.0
2014-Oct-26 06:34N 41°21' E 002°10'0 0.5
2014-Oct-26 05:33N 41°21' E 002°10'6 6.3
2014-Oct-26 04:34N 41°15' E 002°09'1212.3
2014-Oct-26 03:33N 41°10' E 001°54'1312.7
2014-Oct-26 02:33N 41°06' E 001°38'1313.0
2014-Oct-26 01:32N 41°03' E 001°21'7 2.1
2014-Oct-25 22:21N 41°06' E 001°13'0 0.0
2014-Oct-25 21:17N 41°06' E 001°13'0 0.0
2014-Oct-25 20:29N 41°06' E 001°13'0 0.0
2014-Oct-25 19:20N 41°06' E 001°13'0 0.0
2014-Oct-25 14:09N 41°06' E 001°13'0 0.0
2014-Oct-25 12:22N 41°06' E 001°13'0 0.1
2014-Oct-25 11:18N 41°05' E 001°13'2 2.9
2014-Oct-25 10:33N 41°03' E 001°12'2214.9
2014-Oct-25 09:04N 41°05' E 001°41'913.0
2014-Oct-25 08:24N 41°06' E 001°52'2218.0
2014-Oct-25 07:10N 41°16' E 002°19'1817.7
2014-Oct-25 06:09N 41°24' E 002°41'3217.9
2014-Oct-25 04:22N 41°39' E 003°18'11817.4
2014-Oct-24 21:33N 42°32' E 005°41'2017.4
2014-Oct-24 20:24N 42°43' E 006°04'1918.0
2014-Oct-24 19:23N 42°50' E 006°27'1617.5
2014-Oct-24 18:28N 42°60' E 006°44'1617.5
2014-Oct-24 17:32N 43°10' E 007°02'1716.9
2014-Oct-24 16:33N 43°21' E 007°19'1616.3
2014-Oct-24 15:33N 43°31' E 007°37'1716.9
2014-Oct-24 14:33N 43°42' E 007°55'1717.4
2014-Oct-24 13:33N 43°53' E 008°13'1717.3
2014-Oct-24 12:33N 44°04' E 008°32'1717.3
2014-Oct-24 11:34N 44°14' E 008°50'10 9.9
2014-Oct-24 10:33N 44°24' E 008°55'1 0.8
2014-Oct-24 09:32N 44°24' E 008°54'0 0.0
2014-Oct-24 08:32N 44°24' E 008°54'0 0.0
2014-Oct-24 07:32N 44°24' E 008°54'0 0.0
2014-Oct-24 06:32N 44°24' E 008°54'0 0.0
2014-Oct-24 05:32N 44°24' E 008°54'0 0.0
2014-Oct-24 04:32N 44°24' E 008°54'0 0.0
2014-Oct-24 03:32N 44°24' E 008°54'0 0.0
2014-Oct-24 02:32N 44°24' E 008°54'0 0.0
2014-Oct-24 01:32N 44°24' E 008°54'0 0.0
2014-Oct-24 00:32N 44°24' E 008°54'0 0.0
2014-Oct-23 23:32N 44°24' E 008°54'0 0.0
2014-Oct-23 22:32N 44°24' E 008°54'0 0.0
2014-Oct-23 21:32N 44°24' E 008°54'0 0.0
2014-Oct-23 20:32N 44°24' E 008°54'0 0.0
2014-Oct-23 19:32N 44°24' E 008°54'0 0.0
2014-Oct-23 18:32N 44°24' E 008°54'0 0.0
2014-Oct-23 17:32N 44°24' E 008°54'0 0.0
2014-Oct-23 16:32N 44°24' E 008°54'0 0.0
2014-Oct-23 15:32N 44°24' E 008°54'1 1.2
2014-Oct-23 14:33N 44°24' E 008°55'9 9.4
2014-Oct-23 13:33N 44°16' E 009°04'1616.5
2014-Oct-23 12:34N 44°05' E 009°19'1716.9
2014-Oct-23 11:34N 43°52' E 009°35'1717.0
2014-Oct-23 10:33N 43°40' E 009°51'1615.9
2014-Oct-23 09:34N 43°31' E 010°09'7 7.3
2014-Oct-23 08:33N 43°35' E 010°18'0 0.0
2014-Oct-23 07:33N 43°35' E 010°18'0 0.0
2014-Oct-23 06:30N 43°35' E 010°18'0 0.0
2014-Oct-23 05:33N 43°35' E 010°18'0 0.0
2014-Oct-23 04:33N 43°35' E 010°18'0 0.0
2014-Oct-23 03:33N 43°35' E 010°18'0 0.0
2014-Oct-23 02:33N 43°35' E 010°18'0 0.0
2014-Oct-23 01:33N 43°35' E 010°18'0 0.0
2014-Oct-23 00:33N 43°35' E 010°18'0 0.0
2014-Oct-22 23:33N 43°35' E 010°18'0 0.0
2014-Oct-22 22:33N 43°35' E 010°18'0 0.0
2014-Oct-22 21:33N 43°35' E 010°18'0 0.0
2014-Oct-22 20:33N 43°35' E 010°18'0 0.0
2014-Oct-22 19:30N 43°35' E 010°18'0 0.0
2014-Oct-22 18:33N 43°35' E 010°18'0 0.0
2014-Oct-22 17:33N 43°35' E 010°18'0 0.0
2014-Oct-22 16:33N 43°35' E 010°18'0 0.0
2014-Oct-22 15:33N 43°35' E 010°18'0 0.0
2014-Oct-22 14:33N 43°35' E 010°18'0 0.0
2014-Oct-22 13:33N 43°35' E 010°18'0 0.0
2014-Oct-22 12:33N 43°35' E 010°18'0 0.0
2014-Oct-22 11:33N 43°35' E 010°18'0 0.0
2014-Oct-22 10:33N 43°35' E 010°18'0 0.0
2014-Oct-22 09:33N 43°35' E 010°18'0 0.0
2014-Oct-22 08:30N 43°35' E 010°18'0 0.0
2014-Oct-22 07:33N 43°35' E 010°18'0 0.0
2014-Oct-22 06:33N 43°35' E 010°18'2 1.9
2014-Oct-22 05:33N 43°33' E 010°17'5 5.2
2014-Oct-22 04:34N 43°29' E 010°12'2 2.4
2014-Oct-22 03:33N 43°27' E 010°13'1211.5
2014-Oct-22 02:33N 43°15' E 010°10'1211.6
2014-Oct-22 01:33N 43°04' E 010°07'1211.8
2014-Oct-22 00:33N 42°53' E 010°04'1410.6
2014-Oct-21 23:17N 42°39' E 010°09'7212.1
2014-Oct-21 17:22N 41°48' E 011°16'27711.1
2014-Oct-20 16:25N 38°30' E 015°29'1011.3
2014-Oct-20 15:31N 38°23' E 015°38'8 8.2
2014-Oct-20 14:30N 38°14' E 015°38'1211.7
2014-Oct-20 13:30N 38°03' E 015°36'37910.7
2014-Oct-19 02:09N 36°59' E 023°26'3112.1
2014-Oct-18 23:33N 37°29' E 023°39'1212.3
2014-Oct-18 22:33N 37°41' E 023°41'1211.8
2014-Oct-18 21:33N 37°52' E 023°36'5 5.1
2014-Oct-18 20:31N 37°57' E 023°35'0 0.0
2014-Oct-18 19:31N 37°57' E 023°35'0 0.0
2014-Oct-18 18:31N 37°57' E 023°35'0 0.0
2014-Oct-18 17:31N 37°57' E 023°35'0 0.0
2014-Oct-18 16:31N 37°57' E 023°35'0 0.0
2014-Oct-18 15:31N 37°57' E 023°35'0 0.0
2014-Oct-18 14:31N 37°57' E 023°35'0 0.0
2014-Oct-18 13:31N 37°57' E 023°35'0 0.0
2014-Oct-18 12:31N 37°57' E 023°35'0 0.0
2014-Oct-18 11:31N 37°57' E 023°35'0 0.0
2014-Oct-18 10:31N 37°57' E 023°35'0 0.0
2014-Oct-18 09:31N 37°57' E 023°35'0 0.0
2014-Oct-18 08:31N 37°57' E 023°35'0 0.0
2014-Oct-18 07:31N 37°57' E 023°35'0 0.0
2014-Oct-18 06:31N 37°57' E 023°35'0 0.0
2014-Oct-18 05:28N 37°57' E 023°35'0 0.3
2014-Oct-18 04:33N 37°57' E 023°35'3 3.0
2014-Oct-18 03:33N 37°54' E 023°35'3 2.8
2014-Oct-18 02:33N 37°52' E 023°38'6 5.8
2014-Oct-18 01:33N 37°47' E 023°41'10 9.6
2014-Oct-18 00:33N 37°39' E 023°48'1111.4
2014-Oct-17 23:33N 37°30' E 023°58'1211.1
2014-Oct-17 22:30N 37°21' E 024°07'3411.5
2014-Oct-17 19:33N 36°55' E 024°34'1312.0
2014-Oct-17 18:27N 36°45' E 024°44'1211.2
2014-Oct-17 17:21N 36°35' E 024°53'911.4
2014-Oct-17 16:33N 36°29' E 025°02'1111.1
2014-Oct-17 15:33N 36°22' E 025°13'1010.4
2014-Oct-17 14:33N 36°15' E 025°22'1110.6
2014-Oct-17 13:33N 36°09' E 025°33'1110.9
2014-Oct-17 12:33N 36°02' E 025°43'1010.4
2014-Oct-17 11:33N 35°56' E 025°53'1110.9
2014-Oct-17 10:33N 35°49' E 026°04'1010.5
2014-Oct-17 09:33N 35°42' E 026°14'1110.7
2014-Oct-17 08:33N 35°35' E 026°24'1110.9
2014-Oct-17 07:33N 35°29' E 026°34'1211.7
2014-Oct-17 06:33N 35°21' E 026°45'1212.1
2014-Oct-17 05:33N 35°16' E 026°59'1212.2
2014-Oct-17 04:33N 35°12' E 027°13'1211.7
2014-Oct-17 03:33N 35°08' E 027°26'1211.7
2014-Oct-17 02:33N 35°04' E 027°40'1411.6
2014-Oct-17 01:21N 34°59' E 027°56'1111.5
2014-Oct-17 00:25N 34°55' E 028°08'11710.5
2014-Oct-16 13:20N 34°14' E 030°21'  

Dump ship's entire track history